Location: Woodstock
(43.1330°N, 80.7500°W)
Time: 16:17:42
(UTC-04:00)

Daily predictions for brighter satellites

Satellite Brightness Start Highest point End
(mag) Time Altitude Azimuth Time Altitude Azimuth Time Altitude Azimuth
CZ-2C R/B 3.6 19:23:56 10° S 19:28:41 49° W 19:33:19 10° NNW
SJ-6B 3.4 19:25:10 10° SE 19:28:56 40° ENE 19:32:47 10° N
USA 215 4.3 19:25:41 10° ENE 19:30:51 24° SE 19:35:57 10° S
ATLAS CENTAUR R/B 3.6 19:26:25 10° SSW 19:31:08 65° SE 19:45:53 10° NE
Cosmos 1346 4.5 19:30:47 10° NNE 19:33:05 20° ENE 19:35:22 10° ESE
FREGAT/IRIS 3.6 19:31:06 10° SE 19:33:49 29° ENE 19:36:32 10° N
Cosmos 1544 4.3 19:31:38 10° SE 19:34:33 22° E 19:37:29 10° NE
Cosmos 1484 Rocket 2.8 19:31:53 10° SSE 19:35:44 89° WSW 19:39:42 10° NNW
TELKOM 3 3.9 19:32:57 10° NW 19:36:08 45° NNE 19:38:24 10° E
Cosmos 724 4.5 19:32:04 10° SSW 19:37:49 55° ESE 19:43:45 10° NE
SAR-Lupe-4 3.6 19:34:43 10° SSE 19:38:13 58° ENE 19:41:45 10° N
OAO 3 Rocket 4.5 19:37:55 10° WSW 19:42:02 30° S 19:46:12 10° SE
Cosmos 1758 3.6 19:40:37 10° SSE 19:44:32 46° E 19:48:28 10° NNE
Cosmos 1464 Rocket 4.0 19:39:15 10° S 19:45:26 74° E 19:51:36 10° NNE
Cosmos 2034 Rocket 4.1 19:39:35 10° SSE 19:45:40 55° E 19:51:50 10° NNE
Cosmos 1378 3.8 19:44:56 10° NNW 19:48:37 60° W 19:52:17 10° S
SL-16 R/B 2.9 19:43:23 10° SW 19:49:00 60° WNW 19:54:40 10° NNE
Cosmos 1408 Rocket 3.4 19:44:55 10° N 19:49:17 75° E 19:53:34 10° SSE
SKYMED 2 4.0 19:45:40 10° N 19:49:59 69° WNW 19:54:18 10° SSW
Meteor 1-21 Rocket 4.2 19:49:19 10° N 19:54:49 59° ENE 20:00:16 10° SSE
Cosmos 1766 4.2 19:53:05 10° SSW 19:56:58 54° W 20:00:55 10° N
FENGYUN 3A 4.4 19:52:41 10° SE 19:57:23 32° ENE 20:02:06 10° N
Spot 1 4.2 19:56:08 10° SSE 20:00:43 61° ENE 20:05:04 10° N
Helios 1A 3.3 19:57:09 10° SE 20:01:10 45° ENE 20:05:12 10° N
CZ-4C R/B 4.2 19:56:29 10° W 20:01:10 27° NW 20:06:23 10° NNE
NOSS 3-2 (A) 4.2 20:00:24 10° SW 20:06:24 55° NW 20:13:01 10° NNE
Meteor 1-28 Rocket 3.1 20:03:44 10° NNE 20:07:28 89° WNW 20:11:11 10° SSW
CZ-2D R/B 4.4 20:06:28 18° ESE 20:08:14 25° ENE 20:11:27 10° NNE
Meteor 1-29 3.5 20:05:51 10° NNE 20:09:08 36° E 20:12:22 10° SSE
GPS 2-04 Rocket1 4.0 20:11:02 10° SW 20:13:45 21° S 20:15:05 17° SE
NOAA 12 4.4 20:11:48 10° S 20:17:02 70° WSW 20:22:21 10° NNW
ASTEX 1 3.8 20:12:39 10° NNE 20:17:16 40° E 20:21:50 10° SSE
H-2A R/B 3.6 20:17:06 23° ESE 20:18:36 31° ENE 20:22:02 10° N
Cosmos 1943 Rocket 3.3 20:14:39 10° N 20:19:13 25° NE 20:21:11 20° E
Cosmos 1743 Rocket 3.5 20:15:38 10° N 20:20:05 77° E 20:24:29 10° SSE
Cosmos 1452 Rocket 4.5 20:15:05 10° NNW 20:20:09 49° WSW 20:25:11 10° S
Resurs 1-3 3.5 20:17:26 10° SSE 20:21:47 67° ENE 20:26:10 10° N
Cosmos 1805 3.8 20:18:41 10° SSW 20:22:34 62° W 20:26:30 10° N
ALOS 2.4 20:20:14 10° SSE 20:24:43 52° ENE 20:29:17 10° N
Cosmos 2251 Rocket 4.3 20:22:38 10° SSE 20:26:55 26° E 20:31:14 10° NE
Cosmos 2369 Rocket 2.3 20:21:31 10° NNW 20:27:07 57° ENE 20:31:02 20° SE
Helios 1B rocket 2.3 20:25:09 10° NNE 20:29:17 83° ESE 20:33:24 10° SSW
Cosmos 1943 3.3 20:24:03 10° S 20:29:28 50° ESE 20:34:53 10° NE
Resurs 01 Rocket 1.7 20:25:28 10° S 20:29:54 78° WSW 20:34:23 10° NNW
SL-8 R/B 3.6 20:26:43 10° WSW 20:31:31 87° SSE 20:34:17 25° ENE
CENTAUR R/B 2.5 20:25:53 10° SSW 20:31:46 57° ESE 20:38:24 10° NE
Gbstr 26 Del rocket 3.3 20:29:21 10° SW 20:33:41 56° SE 20:36:27 26° ENE
Cosmos 1953 3.7 20:32:29 10° SSW 20:36:16 41° WNW 20:40:04 10° N
Cosmos 1603 4.2 20:31:05 10° SW 20:36:46 65° WNW 20:42:31 10° NNE
ISS -3.4 20:33:43 10° WSW 20:36:58 83° NNW 20:37:49 46° NE
Cosmos 2263 4.4 20:33:13 10° NNW 20:38:53 52° ENE 20:41:31 30° ESE
BREEZE-M DEB (TANK) 3.9 20:24:34 10° W 20:39:08 73° N 20:41:39 30° E
Cosmos 1733 3.1 20:37:03 10° S 20:40:53 67° E 20:44:44 10° NNE
ERBS 3.6 20:41:31 10° NNW 20:44:32 28° NNE 20:44:32 28° NNE
Nadezhda 4 Rocket 4.3 20:41:20 10° NNW 20:47:34 69° W 20:53:42 10° S
Cosmos 1674 3.0 20:44:00 10° NNW 20:47:52 67° W 20:51:28 12° S
Cosmos 1470 2.7 20:44:10 10° S 20:48:03 81° W 20:51:57 10° N
Cosmos 2279 Rocket 4.4 20:48:01 31° SE 20:50:00 39° E 20:55:41 10° NNE
GP-B 3.1 20:47:25 10° N 20:51:50 59° E 20:52:57 44° SE
Cosmos 2058 3.6 20:48:44 10° N 20:51:47 36° NE 20:51:47 36° NE
Spot 2 Rocket 4.5 20:49:05 10° S 20:53:56 47° W 20:58:48 10° NNW
Abrixas 3.3 20:53:23 10° W 20:56:04 47° NW 20:56:04 47° NW
Cosmos 1092 Rocket 4.1 20:51:24 10° N 20:57:36 78° W 21:03:44 10° S
H-2A R/B 4.4 21:03:10 13° NNE 21:03:10 13° NNE 21:03:54 10° NNE
Cosmos 2151 2.8 20:56:49 10° N 21:01:03 79° E 21:01:36 65° SSE
Cosmos 1805 Rocket 4.5 20:58:07 10° N 21:01:08 34° NE 21:01:08 34° NE
ATLAS 5 CENTAUR R/B 3.9 20:58:59 10° W 21:03:10 27° NW 21:07:40 10° NNE
SL-24 R/B - RUBIN 2 4.4 20:57:39 10° NNW 21:04:22 70° NE 21:06:20 45° ESE
Envisat 3.8 21:05:37 34° NE 21:05:37 34° NE 21:09:26 10° N
Cosmos 2221 4.2 21:09:42 22° NNE 21:09:42 22° NNE 21:11:18 10° NNE
Cosmos 2142 Rocket 4.4 21:01:27 10° S 21:07:50 86° E 21:14:16 10° N
Cosmos 1655 Rocket 3.9 21:01:48 10° N 21:08:00 66° E 21:10:10 41° SE
Cosmos 2026 Rocket 3.8 21:02:30 10° N 21:08:38 73° E 21:11:21 35° SSE
Meteor 2-1 Rocket 4.3 21:08:30 49° SE 21:09:29 55° E 21:15:14 10° NNE
Cosmos 158 Rocket 4.0 21:06:09 10° SSW 21:11:00 73° WNW 21:15:54 10° NNE
Cosmos 1174 4.2 21:06:27 10° SW 21:11:02 65° WNW 21:12:05 44° N
Meteor 1-16 Rocket 3.9 21:06:39 10° S 21:11:56 77° E 21:17:16 10° NNE
USA 215 3.1 21:09:20 18° NE 21:14:23 88° SE 21:20:56 10° SW
Cosmos 1634 Rocket 4.0 21:08:35 10° S 21:14:50 80° W 21:21:04 10° N
Meteor 1-11 4.2 21:17:46 10° N 21:23:36 86° W 21:25:15 49° S
Meteor 2-20 4.3 21:23:57 10° N 21:30:06 68° E 21:30:11 68° E
ERS-1 Rocket 3.3 21:35:50 55° N 21:35:50 55° N 21:39:49 10° N
Cosmos 1943 Rocket 2.8 21:57:50 10° NNW 22:02:44 53° W 22:02:44 53° W
Cosmos 2369 Rocket 4.3 22:06:30 10° NW 22:10:40 21° W 22:12:52 17° SW
CENTAUR R/B 4.0 22:17:06 10° WSW 22:22:48 34° NW 22:29:12 10° NNE
USA 215 4.4 22:56:44 38° NNW 22:56:59 38° NNW 23:02:53 10° W
